TimeEDT,TemperatureF,Dew PointF,Humidity,Sea Level PressureIn,VisibilityMPH,Wind Direction,Wind SpeedMPH,Gust SpeedMPH,PrecipitationIn,Events,Conditions,WindDirDegrees,DateUTC
12:15 AM,68.0,68.0,100,30.24,4.0,SW,3.5,-,N/A,,Clear,220,2013-07-19 04:15:00
12:35 AM,68.0,68.0,100,30.23,5.0,SSW,4.6,-,N/A,,Clear,210,2013-07-19 04:35:00
12:55 AM,68.0,68.0,100,30.23,5.0,SSW,4.6,-,N/A,,Clear,200,2013-07-19 04:55:00
1:15 AM,68.0,68.0,100,30.22,5.0,SSW,4.6,-,N/A,,Clear,210,2013-07-19 05:15:00
1:35 AM,68.0,68.0,100,30.22,5.0,SSW,5.8,-,N/A,,Clear,210,2013-07-19 05:35:00
1:55 AM,68.0,68.0,100,30.22,7.0,SSW,5.8,-,N/A,,Clear,200,2013-07-19 05:55:00
2:15 AM,68.0,68.0,100,30.21,7.0,SSW,4.6,-,N/A,,Clear,200,2013-07-19 06:15:00
2:35 AM,68.0,68.0,100,30.21,7.0,South,4.6,-,0.01,,Clear,190,2013-07-19 06:35:00
2:55 AM,69.8,69.8,100,30.20,10.0,South,4.6,-,0.01,,Clear,190,2013-07-19 06:55:00
3:15 AM,68.0,68.0,100,30.20,10.0,WSW,4.6,-,N/A,,Clear,240,2013-07-19 07:15:00
3:35 AM,68.0,68.0,100,30.20,4.0,South,3.5,-,N/A,,Clear,190,2013-07-19 07:35:00
3:55 AM,66.2,66.2,100,30.20,4.0,WSW,3.5,-,N/A,,Clear,240,2013-07-19 07:55:00
4:15 AM,66.2,66.2,100,30.20,3.0,SSW,4.6,-,N/A,,Clear,200,2013-07-19 08:15:00
4:35 AM,66.2,66.2,100,30.20,5.0,SSW,4.6,-,N/A,,Clear,210,2013-07-19 08:35:00
4:55 AM,66.2,66.2,100,30.19,4.0,SW,4.6,-,N/A,,Clear,220,2013-07-19 08:55:00
5:15 AM,66.2,66.2,100,30.19,3.0,SSW,6.9,-,N/A,,Clear,200,2013-07-19 09:15:00
5:35 AM,66.2,66.2,100,30.20,4.0,South,4.6,-,N/A,,Clear,190,2013-07-19 09:35:00
5:55 AM,68.0,68.0,100,30.19,4.0,SW,4.6,-,N/A,,Clear,220,2013-07-19 09:55:00
6:15 AM,66.2,66.2,100,30.20,2.5,Calm,Calm,-,N/A,,Clear,0,2013-07-19 10:15:00
6:35 AM,66.2,66.2,100,30.20,0.2,Calm,Calm,-,N/A,Fog,Fog,0,2013-07-19 10:35:00
6:55 AM,66.2,66.2,100,30.20,0.5,SW,4.6,-,N/A,Fog,Fog,220,2013-07-19 10:55:00
7:15 AM,68.0,68.0,100,30.21,2.5,WSW,3.5,-,N/A,,Clear,240,2013-07-19 11:15:00
7:35 AM,68.0,68.0,100,30.21,3.0,SW,4.6,-,N/A,,Clear,230,2013-07-19 11:35:00
7:55 AM,69.8,69.8,100,30.21,4.0,SW,5.8,-,N/A,,Clear,220,2013-07-19 11:55:00
8:15 AM,69.8,69.8,100,30.22,4.0,SW,6.9,-,N/A,,Scattered Clouds,230,2013-07-19 12:15:00
8:35 AM,71.6,71.6,100,30.22,4.0,WSW,8.1,-,N/A,,Scattered Clouds,240,2013-07-19 12:35:00
8:55 AM,71.6,71.6,100,30.22,5.0,SW,6.9,-,N/A,,Scattered Clouds,230,2013-07-19 12:55:00
9:15 AM,73.4,73.4,100,30.22,7.0,WSW,6.9,-,N/A,,Scattered Clouds,240,2013-07-19 13:15:00
9:35 AM,75.2,75.2,100,30.22,10.0,WSW,9.2,-,N/A,,Clear,240,2013-07-19 13:35:00
9:55 AM,77.0,75.2,94,30.22,10.0,WSW,5.8,-,N/A,,Clear,240,2013-07-19 13:55:00
10:15 AM,77.0,75.2,94,30.22,10.0,SSW,6.9,-,N/A,,Clear,210,2013-07-19 14:15:00
10:35 AM,78.8,73.4,83,30.23,10.0,WSW,6.9,-,N/A,,Clear,240,2013-07-19 14:35:00
10:55 AM,78.8,75.2,89,30.23,10.0,WSW,8.1,-,N/A,,Scattered Clouds,240,2013-07-19 14:55:00
11:15 AM,80.6,75.2,84,30.23,10.0,WSW,5.8,-,N/A,,Mostly Cloudy,250,2013-07-19 15:15:00
11:35 AM,78.8,73.4,83,30.22,10.0,West,3.5,-,N/A,,Mostly Cloudy,270,2013-07-19 15:35:00
11:55 AM,80.6,75.2,84,30.22,10.0,SSW,6.9,-,N/A,,Mostly Cloudy,210,2013-07-19 15:55:00
12:15 PM,82.4,71.6,70,30.22,10.0,Calm,Calm,-,N/A,,Mostly Cloudy,0,2013-07-19 16:15:00
12:35 PM,80.6,71.6,74,30.21,10.0,SW,4.6,-,N/A,,Mostly Cloudy,230,2013-07-19 16:35:00
12:55 PM,78.8,69.8,74,30.21,10.0,West,8.1,-,N/A,Thunderstorm,Overcast,260,2013-07-19 16:55:00
1:15 PM,78.8,69.8,74,30.21,10.0,South,5.8,-,N/A,Thunderstorm,Thunderstorm,190,2013-07-19 17:15:00
1:35 PM,77.0,71.6,83,30.21,10.0,SSW,8.1,-,N/A,Thunderstorm,Thunderstorm,200,2013-07-19 17:35:00
1:55 PM,77.0,69.8,78,30.19,10.0,SSW,6.9,-,N/A,Thunderstorm,Thunderstorm,210,2013-07-19 17:55:00
2:15 PM,77.0,69.8,78,30.18,10.0,SW,5.8,-,N/A,,Scattered Clouds,220,2013-07-19 18:15:00
2:35 PM,78.8,69.8,74,30.18,10.0,West,5.8,-,N/A,Thunderstorm,Clear,260,2013-07-19 18:35:00
2:55 PM,78.8,71.6,78,30.17,10.0,SW,4.6,-,N/A,Thunderstorm,Clear,220,2013-07-19 18:55:00
3:15 PM,80.6,71.6,74,30.16,10.0,SSW,5.8,-,N/A,Thunderstorm,Clear,210,2013-07-19 19:15:00
3:35 PM,80.6,71.6,74,30.15,10.0,SSW,5.8,-,N/A,,Scattered Clouds,210,2013-07-19 19:35:00
3:55 PM,82.4,69.8,66,30.14,10.0,WSW,6.9,-,N/A,,Scattered Clouds,240,2013-07-19 19:55:00
4:15 PM,82.4,68.0,62,30.14,10.0,SW,9.2,-,N/A,,Clear,230,2013-07-19 20:15:00
4:35 PM,80.6,69.8,70,30.14,10.0,WSW,9.2,-,N/A,Thunderstorm,Clear,240,2013-07-19 20:35:00
4:55 PM,78.8,71.6,78,30.13,10.0,SW,6.9,-,N/A,Thunderstorm,Clear,230,2013-07-19 20:55:00
5:15 PM,77.0,69.8,78,30.12,10.0,WNW,3.5,-,N/A,Thunderstorm,Mostly Cloudy,290,2013-07-19 21:15:00
5:35 PM,77.0,69.8,78,30.12,10.0,NW,3.5,-,N/A,,Scattered Clouds,310,2013-07-19 21:35:00
5:55 PM,75.2,69.8,83,30.13,10.0,North,4.6,-,N/A,,Clear,350,2013-07-19 21:55:00
6:15 PM,75.2,68.0,78,30.13,10.0,Calm,Calm,-,N/A,,Clear,0,2013-07-19 22:15:00
6:35 PM,75.2,69.8,83,30.13,10.0,Calm,Calm,-,N/A,,Clear,0,2013-07-19 22:35:00
6:55 PM,75.2,69.8,83,30.12,10.0,Calm,Calm,-,N/A,,Scattered Clouds,0,2013-07-19 22:55:00
7:15 PM,75.2,69.8,83,30.11,10.0,WSW,4.6,-,N/A,Thunderstorm,Thunderstorm,250,2013-07-19 23:15:00
7:35 PM,75.2,69.8,83,30.12,10.0,West,3.5,-,N/A,,Scattered Clouds,260,2013-07-19 23:35:00
7:55 PM,73.4,69.8,88,30.13,10.0,Calm,Calm,-,N/A,Thunderstorm,Thunderstorm,0,2013-07-19 23:55:00
8:15 PM,73.4,69.8,88,30.12,10.0,South,3.5,-,N/A,Thunderstorm,Thunderstorm,180,2013-07-20 00:15:00
8:35 PM,73.4,69.8,88,30.13,10.0,SW,4.6,-,N/A,Thunderstorm,Thunderstorm,220,2013-07-20 00:35:00
8:55 PM,71.6,69.8,94,30.14,10.0,SSE,4.6,-,N/A,Thunderstorm,Thunderstorm,160,2013-07-20 00:55:00
9:15 PM,73.4,69.8,88,30.13,10.0,Calm,Calm,-,N/A,,Clear,0,2013-07-20 01:15:00
9:35 PM,71.6,69.8,94,30.15,10.0,Calm,Calm,-,N/A,,Scattered Clouds,0,2013-07-20 01:35:00
9:55 PM,71.6,69.8,94,30.16,10.0,SE,4.6,-,N/A,Thunderstorm,Mostly Cloudy,140,2013-07-20 01:55:00
10:15 PM,71.6,71.6,100,30.16,10.0,SSE,3.5,-,N/A,,Scattered Clouds,160,2013-07-20 02:15:00
10:35 PM,71.6,71.6,100,30.16,10.0,Calm,Calm,-,N/A,,Scattered Clouds,0,2013-07-20 02:35:00
10:55 PM,69.8,69.8,100,30.15,7.0,Calm,Calm,-,N/A,,Clear,0,2013-07-20 02:55:00
11:15 PM,69.8,69.8,100,30.15,5.0,South,5.8,-,N/A,,Clear,190,2013-07-20 03:15:00
11:35 PM,71.6,69.8,94,30.14,10.0,South,4.6,-,N/A,,Clear,180,2013-07-20 03:35:00
11:55 PM,71.6,69.8,94,30.14,10.0,South,4.6,-,N/A,,Clear,180,2013-07-20 03:55:00